Sioux City, IA

3:14 PM CDT on June 27, 2017 (GMT -0500)
Sioux Gateway

Weather History for KSUX - July, 2013

Change the Weather History Date:

Tuesday, July 2, 2013

  Actual Average Record
Temperature  
Mean Temperature 70 °F 74 °F  
Max Temperature 84 °F 85 °F 99 °F (1911)
Min Temperature 56 °F 63 °F 47 °F (1945)
Degree Days  
Heating Degree Days 0 0  
Month to date heating degree days 0 0  
Since 1 June heating degree days 40 27  
Since 1 July heating degree days 0 0  
Cooling Degree Days 5 9  
Month to date cooling degree days 9 18  
Year to date cooling degree days 260 270  
Since 1 June cooling degree days 204 206  
Growing Degree Days 20 (Base 50)    
Moisture  
Dew Point 57 °F    
Average Humidity 66    
Maximum Humidity 93    
Minimum Humidity 39    
Precipitation  
Precipitation 0.08 in 0.11 in 1.59 in (1902)
Month to date precipitation 0.08 0.22  
Year to date precipitation 16.54 14.09  
Snow  
Snow 0.00 in 0.00 in 0.00 in ()
Month to date snowfall 0.0 0.0  
Since 1 June snowfall 0.0 0.0  
Since 1 July snowfall 0.0 0.0  
Snow Depth 0.00 in    
Sea Level Pressure  
Sea Level Pressure 30.11 in    
Wind  
Wind Speed 4 mph (NNE)    
Max Wind Speed 22 mph    
Max Gust Speed 25 mph    
Visibility 9 miles    
Events Rain , Thunderstorm    
T = Trace of Precipitation, MM = Missing Value Source: NWS Daily Summary

Daily Weather History Graph

Daily Weather History Graph

Search for Another Location

Airport or City:

Trip Planner

Search our weather history database for the weather conditions in past years. The results will help you decide how hot, cold, wet, or windy it might be!

Date:

Astronomy

Jul. 02, 2013 Rise Set
Actual Time 5:53 AM CDT 9:06 PM CDT
Civil Twilight 5:18 AM CDT 9:40 PM CDT
Nautical Twilight 4:33 AM CDT 10:24 PM CDT
Astronomical Twilight 3:40 AM CDT 11:18 PM CDT
Moon 1:59 AM CDT (7/2) 4:18 PM CDT (7/2)
Length of Visible Light 16h 22m
Length of Day
15h 13m
Waning Crescent, 26% of the Moon is Illuminated
Jul 2
Waning Crescent
Jul 8
New
Jul 15
First Quarter
Jul 22
Full
Jul 29
Last Quarter

Hourly Weather History & Observations

Time (CDT) Temp. Heat Index Dew Point Humidity Pressure Visibility Wind Dir Wind Speed Gust Speed Precip Events Conditions
12:52 AM 63.0 °F - 55.0 °F 75% 30.14 in 10.0 mi Calm Calm - N/A   Mostly Cloudy
1:52 AM 61.0 °F - 55.0 °F 81% 30.14 in 10.0 mi Calm Calm - N/A   Partly Cloudy
2:52 AM 62.1 °F - 55.9 °F 80% 30.14 in 10.0 mi Calm Calm - N/A   Mostly Cloudy
3:52 AM 61.0 °F - 57.0 °F 87% 30.14 in 10.0 mi Calm Calm - N/A   Overcast
4:52 AM 60.1 °F - 55.9 °F 86% 30.14 in 10.0 mi Calm Calm - N/A   Clear
5:52 AM 57.0 °F - 54.0 °F 89% 30.14 in 7.0 mi Calm Calm - N/A   Clear
6:52 AM 57.9 °F - 55.0 °F 90% 30.15 in 7.0 mi Calm Calm - N/A   Scattered Clouds
7:52 AM 61.0 °F - 55.9 °F 83% 30.16 in 7.0 mi ESE 5.8 mph - N/A   Clear
9:52 AM 71.1 °F - 57.9 °F 63% 30.15 in 7.0 mi South 4.6 mph - N/A   Clear
10:52 AM 75.0 °F - 57.9 °F 55% 30.14 in 8.0 mi NNE 3.5 mph - N/A   Clear
11:52 AM 79.0 °F - 57.9 °F 48% 30.14 in 9.0 mi Variable 4.6 mph - N/A   Clear
12:52 PM 82.0 °F 81.6 °F 55.9 °F 41% 30.12 in 10.0 mi NE 6.9 mph - N/A   Clear
1:52 PM 82.0 °F 81.4 °F 55.0 °F 39% 30.10 in 10.0 mi Variable 4.6 mph - N/A   Mostly Cloudy
2:52 PM 81.0 °F 80.5 °F 54.0 °F 39% 30.09 in 10.0 mi NNE 8.1 mph - N/A   Scattered Clouds
3:01 PM 80.6 °F 80.3 °F 53.6 °F 39% 30.11 in 10.0 mi NNW 5.8 mph - 0.00 in Rain , Thunderstorm Light Thunderstorms and Rain
3:15 PM 78.8 °F - 55.4 °F 44% 30.11 in 10.0 mi WNW 6.9 mph 21.9 mph 0.00 in   Scattered Clouds
3:52 PM 81.0 °F 80.8 °F 55.9 °F 42% 30.08 in 10.0 mi West 5.8 mph - 0.00 in   Scattered Clouds
4:52 PM 81.0 °F 81.1 °F 57.9 °F 45% 30.07 in 10.0 mi West 6.9 mph - N/A   Scattered Clouds
5:36 PM 75.2 °F - 57.2 °F 53% 30.09 in 6.0 mi North 5.8 mph - 0.02 in Rain , Thunderstorm Thunderstorms and Rain
5:52 PM 75.9 °F - 55.0 °F 48% 30.08 in 9.0 mi North 8.1 mph - 0.04 in Rain Light Rain
6:19 PM 71.6 °F - 57.2 °F 60% 30.09 in 9.0 mi NNE 11.5 mph - 0.02 in Rain , Thunderstorm Light Rain
6:52 PM 70.0 °F - 57.9 °F 65% 30.08 in 10.0 mi NE 5.8 mph - 0.04 in Rain Light Rain
7:52 PM 72.0 °F - 60.1 °F 66% 30.06 in 10.0 mi NE 3.5 mph - 0.00 in   Scattered Clouds
8:52 PM 69.1 °F - 64.0 °F 84% 30.06 in 10.0 mi Calm Calm - 0.00 in   Partly Cloudy
9:52 PM 69.1 °F - 57.0 °F 65% 30.07 in 10.0 mi NE 3.5 mph - N/A   Clear
10:52 PM 64.9 °F - 60.1 °F 84% 30.07 in 10.0 mi Calm Calm - N/A   Clear
11:52 PM 62.1 °F - 60.1 °F 93% 30.07 in 10.0 mi Calm Calm - N/A   Clear